Probability
48 48 61 65 71 48 48 42 42 35 35 29 19 19 16 16 16 16 16 19 19 13 10 6 0 0 0 0 0 0 0 0 0 0 0 0 0 0 0 0 3 10 13
52 45 48 71 65 52 39 45 35 26 23 29 19 16 13 13 16 19 16 16 13 13 10 3 3 0 0 0 0 0 0 0 0 0 0 0 0 0 0 0 0 3 3
39 55 52 55 52 55 45 45 32 23 19 16 13 16 13 6 16 10 10 13 10 10 3 3 3 0 0 0 0 0 0 0 0 0 0 0 0 0 0 0 0 3 3
35 39 45 45 42 48 39 39 26 19 16 16 16 13 6 10 10 10 10 10 10 10 6 3 3 0 0 0 0 0 0 0 0 0 0 0 0 0 0 0 0 0 0
26 35 42 42 42 42 39 26 26 23 23 23 19 16 10 10 10 10 10 10 6 3 6 3 3 0 0 0 0 0 0 0 0 0 0 0 0 0 0 0 0 0 0
29 39 45 48 45 32 26 32 26 23 19 23 23 19 13 6 6 6 6 6 3 3 6 3 3 0 0 0 0 0 0 0 0 0 0 0 0 0 0 0 0 0 0
29 35 39 39 26 32 26 29 26 19 16 19 19 13 13 3 6 6 6 6 3 3 3 3 3 0 0 0 0 0 0 0 0 0 0 0 0 0 0 0 0 0 0
26 32 29 29 23 23 19 23 23 16 13 16 16 19 6 3 0 3 6 6 6 3 3 3 3 0 0 0 0 0 0 0 0 0 0 0 0 0 0 0 0 0 0
16 26 29 16 13 16 19 16 16 13 16 10 16 16 13 3 0 0 3 3 3 3 3 3 0 0 0 0 0 0 0 0 0 0 0 0 0 0 0 0 0 0 0
10 13 16 10 13 16 16 16 16 13 6 10 10 13 6 3 0 0 0 0 0 0 0 0 0 0 0 0 0 0 0 0 0 0 0 0 0 0 0 0 0 0 0
13 10 10 10 13 16 13 13 13 10 3 3 3 6 6 6 6 0 0 0 0 0 0 0 0 0 0 0 0 0 0 0 0 0 0 0 0 0 0 0 0 0 0
10 13 6 10 10 13 13 13 6 6 6 3 0 3 3 3 3 0 0 0 0 0 0 0 0 0 0 0 0 0 0 0 0 0 0 0 0 0 0 0 0 0 0
3 6 10 10 10 10 10 10 10 10 0 0 0 3 3 0 3 0 0 0 0 0 0 0 0 0 0 0 0 0 0 0 0 0 0 0 0 0 0 0 0 0 0
3 3 3 6 13 6 6 6 10 6 0 0 3 3 0 0 0 0 0 0 0 0 0 0 0 0 0 0 0 0 0 0 0 0 0 0 0 0 0 0 0 0 0
3 3 3 3 3 6 10 10 10 3 3 6 6 3 0 0 0 0 0 0 0 0 0 0 0 0 0 0 0 0 0 0 0 0 0 0 0 0 0 0 0 0 0
3 6 6 3 0 3 6 6 3 6 6 6 6 6 3 0 0 0 0 0 0 0 0 0 0 0 0 0 0 0 0 0 0 0 0 0 0 0 0 0 0 0 0
0 0 6 3 0 3 6 3 0 0 3 6 6 6 3 3 0 0 0 0 0 0 0 0 0 0 0 0 0 0 0 0 0 0 0 0 0 0 0 0 0 0 0
0 0 0 0 3 3 0 3 0 0 3 3 3 3 0 0 0 0 0 0 0 0 0 0 0 0 0 0 0 0 0 0 0 0 0 0 0 0 0 0 0 0 0
0 3 3 0 3 3 3 0 0 0 0 0 0 0 3 3 0 0 0 0 0 0 0 0 0 0 0 0 0 0 0 0 0 0 0 0 0 0 0 0 0 0 0
0 0 0 3 3 3 6 3 3 0 0 3 3 0 3 3 0 0 0 0 0 0 0 0 0 0 0 0 0 0 0 0 0 0 0 0 0 0 0 0 0 0 0
0 0 0 3 3 3 0 0 0 0 3 3 3 3 3 3 3 3 0 0 0 0 0 0 0 0 0 0 0 0 0 0 0 0 0 0 0 0 0 0 0 0 0
0 0 0 0 3 0 0 0 0 0 0 3 3 3 3 3 3 3 3 0 0 0 0 0 0 0 0 0 0 0 0 0 0 0 0 0 0 0 0 0 0 0 0
0 0 0 0 0 0 0 0 0 0 0 0 0 3 3 3 3 3 3 3 3 0 0 0 0 0 0 0 0 0 0 0 0 0 0 0 0 0 0 0 0 0 0
0 0 0 0 0 0 0 0 0 0 0 0 0 0 3 3 3 3 3 3 3 3 3 3 0 0 0 0 0 0 0 0 0 0 0 0 0 0 0 0 0 0 0
0 0 0 0 0 0 0 0 0 0 0 0 0 0 3 3 3 3 3 3 3 3 3 3 3 0 0 0 0 0 0 0 0 0 0 0 0 0 0 0 0 0 0
0 0 0 0 0 0 0 0 0 0 0 0 0 0 0 3 6 3 3 0 0 0 0 0 0 0 0 0 0 0 0 0 0 0 0 0 0 0 0 0 0 0 0
Height
5860 5859 5858 5858 5858 5857 5857 5857 5857 5858 5859 5860 5862 5863 5865 5866 5868 5870 5872 5874 5876 5879 5881 5884 5886 5888 5889 5891 5892 5893 5894 5895 5896 5897 5897 5898 5899 5899 5900 5900 5900 5900 5901
5856 5856 5855 5855 5855 5854 5854 5854 5854 5854 5855 5856 5858 5860 5861 5863 5865 5868 5870 5872 5874 5876 5879 5882 5884 5885 5887 5889 5890 5891 5892 5893 5894 5895 5896 5897 5898 5898 5899 5899 5899 5900 5900
5852 5852 5852 5852 5852 5851 5851 5850 5850 5850 5850 5852 5853 5855 5857 5860 5862 5865 5867 5870 5871 5874 5876 5879 5881 5883 5885 5887 5888 5889 5891 5892 5893 5894 5895 5895 5896 5897 5897 5898 5898 5899 5899
5849 5848 5848 5848 5847 5847 5847 5846 5846 5846 5846 5847 5849 5851 5854 5857 5859 5861 5864 5866 5868 5871 5874 5876 5878 5881 5882 5884 5886 5887 5888 5890 5891 5892 5893 5894 5894 5895 5896 5896 5896 5897 5897
5845 5845 5844 5843 5843 5843 5842 5842 5842 5842 5843 5843 5845 5847 5849 5852 5855 5857 5860 5863 5865 5867 5870 5873 5875 5878 5879 5881 5883 5884 5886 5887 5889 5890 5891 5892 5892 5893 5894 5894 5895 5895 5896
5842 5841 5839 5839 5838 5838 5838 5838 5838 5838 5839 5839 5841 5843 5845 5847 5851 5853 5856 5859 5861 5863 5866 5869 5871 5874 5876 5878 5880 5881 5883 5885 5886 5887 5888 5889 5890 5891 5891 5892 5892 5893 5894
5837 5837 5836 5835 5834 5834 5834 5834 5833 5833 5834 5835 5837 5839 5841 5843 5846 5850 5853 5855 5858 5860 5862 5865 5867 5870 5872 5874 5876 5878 5880 5881 5883 5884 5885 5886 5887 5888 5889 5889 5890 5891 5891
5834 5833 5832 5831 5830 5830 5830 5829 5829 5828 5829 5830 5832 5835 5836 5839 5841 5845 5848 5851 5853 5856 5858 5860 5863 5865 5868 5870 5873 5875 5876 5878 5879 5881 5882 5883 5884 5885 5886 5886 5887 5888 5889
5830 5830 5829 5828 5827 5827 5826 5826 5825 5824 5825 5827 5828 5830 5832 5834 5837 5840 5843 5846 5848 5851 5854 5856 5859 5861 5864 5866 5869 5871 5873 5874 5876 5877 5879 5880 5881 5882 5882 5883 5884 5885 5885
5827 5826 5826 5825 5824 5824 5824 5823 5822 5821 5822 5823 5824 5826 5827 5830 5832 5835 5838 5841 5844 5846 5849 5852 5855 5857 5860 5863 5865 5867 5869 5870 5872 5873 5875 5876 5877 5878 5879 5879 5880 5881 5882
5824 5824 5823 5822 5822 5821 5820 5820 5820 5819 5819 5820 5822 5823 5825 5826 5828 5831 5834 5836 5839 5842 5845 5847 5850 5853 5856 5858 5861 5863 5865 5866 5868 5869 5870 5872 5872 5873 5874 5875 5876 5877 5877
5821 5821 5821 5820 5819 5819 5818 5817 5817 5817 5817 5818 5819 5820 5821 5823 5825 5827 5829 5831 5834 5838 5841 5843 5846 5849 5851 5854 5856 5858 5860 5862 5863 5864 5865 5866 5867 5869 5870 5870 5871 5872 5872
5818 5818 5818 5818 5817 5816 5815 5815 5815 5815 5815 5815 5816 5817 5818 5819 5821 5823 5825 5828 5830 5833 5836 5839 5842 5845 5847 5849 5851 5853 5855 5857 5858 5859 5860 5861 5862 5864 5864 5865 5866 5867 5867
5816 5816 5815 5815 5815 5814 5814 5813 5813 5813 5813 5813 5813 5815 5816 5817 5818 5820 5822 5825 5827 5830 5833 5836 5838 5840 5842 5844 5846 5848 5850 5851 5853 5854 5855 5856 5857 5858 5859 5860 5860 5860 5861
5813 5813 5813 5813 5813 5813 5812 5811 5811 5811 5811 5812 5812 5813 5814 5815 5816 5818 5820 5822 5824 5827 5829 5832 5834 5836 5838 5839 5841 5843 5845 5846 5847 5849 5850 5851 5852 5852 5853 5853 5854 5854 5854
5810 5810 5810 5810 5810 5810 5810 5809 5809 5809 5810 5810 5811 5811 5812 5813 5814 5816 5818 5819 5821 5823 5826 5828 5830 5831 5833 5834 5836 5838 5839 5841 5842 5843 5844 5845 5845 5846 5846 5846 5846 5846 5846
5807 5807 5807 5807 5807 5807 5807 5807 5807 5807 5808 5808 5809 5809 5810 5811 5812 5814 5815 5816 5818 5820 5822 5823 5825 5827 5828 5829 5831 5832 5834 5835 5837 5838 5838 5838 5839 5839 5839 5839 5838 5838 5838
5804 5804 5804 5804 5804 5804 5804 5804 5805 5805 5806 5807 5807 5808 5809 5809 5810 5811 5812 5814 5815 5816 5818 5819 5820 5822 5823 5824 5825 5826 5828 5829 5831 5831 5831 5831 5831 5831 5831 5831 5830 5830 5829
5800 5800 5800 5800 5800 5800 5800 5801 5802 5803 5804 5805 5805 5806 5807 5807 5808 5809 5810 5811 5812 5813 5814 5815 5816 5817 5818 5819 5820 5821 5822 5823 5824 5824 5824 5824 5824 5823 5822 5822 5822 5821 5820
5795 5796 5796 5796 5796 5796 5797 5798 5799 5800 5801 5802 5803 5804 5804 5805 5805 5806 5807 5808 5808 5809 5810 5811 5812 5813 5813 5814 5815 5815 5816 5816 5817 5817 5816 5816 5816 5815 5814 5813 5812 5811 5810
5790 5791 5791 5792 5792 5792 5793 5795 5796 5797 5798 5799 5799 5800 5801 5801 5802 5802 5803 5804 5804 5805 5805 5806 5807 5807 5808 5808 5808 5809 5809 5809 5808 5808 5808 5807 5807 5806 5805 5804 5803 5801 5800
5785 5786 5787 5787 5788 5789 5790 5791 5792 5793 5794 5795 5796 5796 5797 5797 5798 5798 5799 5799 5799 5800 5801 5801 5801 5802 5802 5802 5801 5801 5801 5801 5800 5800 5799 5798 5797 5796 5795 5794 5792 5791 5789
5780 5781 5782 5783 5784 5785 5786 5787 5788 5788 5789 5790 5791 5792 5793 5793 5793 5794 5794 5794 5795 5795 5795 5795 5795 5795 5795 5794 5794 5793 5793 5792 5792 5791 5790 5789 5788 5787 5785 5784 5782 5780 5777
5775 5776 5777 5778 5779 5780 5781 5782 5783 5783 5784 5785 5786 5787 5788 5788 5788 5789 5789 5789 5789 5789 5789 5789 5788 5788 5788 5788 5787 5787 5786 5785 5784 5783 5782 5781 5779 5777 5775 5773 5771 5768 5766
5770 5771 5772 5773 5775 5776 5776 5777 5778 5779 5780 5780 5781 5782 5782 5783 5783 5783 5783 5783 5783 5783 5783 5783 5782 5782 5781 5781 5781 5780 5779 5777 5776 5774 5773 5771 5769 5767 5765 5762 5760 5757 5754
5764 5765 5767 5768 5769 5770 5771 5772 5773 5774 5774 5775 5776 5776 5777 5777 5777 5777 5777 5777 5777 5777 5777 5776 5776 5775 5774 5773 5772 5771 5770 5768 5767 5765 5763 5761 5759 5757 5754 5751 5748 5745 5741
Wind_Speed
13 14 14 12 13 12 13 14 14 14 15 16 17 16 15 15 15 15 14 14 13 14 14 13 12 11 10 9 9 8 8 8 7 7 6 6 5 4 4 4 4 4 4
15 15 14 14 14 14 13 14 14 15 16 16 18 19 18 17 17 16 15 14 14 15 15 15 14 13 12 11 10 10 9 9 8 8 8 8 7 6 6 5 5 5 5
15 16 15 15 15 15 15 15 15 16 16 17 18 19 19 17 16 16 16 15 15 16 16 16 16 15 14 13 12 11 11 10 9 9 9 9 8 7 7 7 7 7 7
15 16 16 16 15 15 15 15 15 15 16 17 18 18 19 20 18 18 18 17 16 17 17 18 17 17 16 15 14 13 12 12 11 11 10 10 9 9 9 9 9 8 8
15 15 16 17 17 16 16 15 15 15 16 18 18 18 18 20 20 21 19 18 17 18 19 20 19 18 18 17 16 16 15 14 13 13 12 11 11 11 10 10 10 10 9
15 16 17 17 17 17 17 16 16 16 16 17 17 17 17 18 20 21 21 20 18 18 20 21 21 20 20 19 18 17 16 15 15 14 14 13 13 12 11 11 11 11 10
16 16 17 17 17 17 16 16 16 17 18 17 18 19 19 19 20 21 22 21 20 20 20 22 22 21 21 20 20 19 18 17 17 16 15 15 14 13 13 12 12 12 12
17 16 16 17 16 15 15 14 15 15 17 17 17 19 20 21 21 21 22 22 22 21 21 22 22 22 22 22 21 20 20 18 18 17 17 16 16 15 14 14 13 14 14
16 15 16 16 14 13 13 13 13 13 14 16 16 18 19 19 21 21 21 22 23 22 23 23 23 22 22 22 21 20 20 20 19 18 17 17 17 16 16 15 15 15 15
12 12 13 13 13 13 13 12 12 11 12 14 15 16 17 18 19 21 21 23 23 23 23 24 24 23 22 22 22 21 21 21 20 19 19 19 19 18 17 17 17 17 17
11 10 11 11 11 11 11 11 12 12 11 12 14 15 17 17 19 21 21 22 22 22 22 22 23 23 24 23 23 22 22 22 21 21 20 20 20 20 19 19 18 18 19
9 9 10 9 9 10 10 9 11 11 11 12 13 15 16 17 18 20 21 21 22 22 21 21 21 22 23 24 23 23 22 22 22 23 23 22 21 21 21 20 19 20 20
9 9 10 9 9 9 8 8 9 9 10 11 12 13 14 15 17 18 19 20 21 22 22 22 22 22 23 23 23 23 23 23 23 23 23 22 22 22 22 21 21 22 23
9 10 9 9 9 9 9 8 8 8 9 9 10 11 12 13 15 17 18 19 20 21 22 22 23 22 22 23 23 23 23 23 23 23 22 23 23 24 24 24 24 25 25
10 9 9 9 9 8 8 8 7 8 8 8 8 9 11 11 14 15 17 18 19 20 22 22 22 22 23 24 24 23 23 23 23 23 23 23 24 25 26 27 27 27 28
10 9 9 10 9 8 8 8 8 8 8 8 9 10 10 12 14 15 16 17 18 19 21 22 22 23 24 25 24 24 24 24 25 24 25 25 26 27 28 29 30 30 31
11 11 11 11 11 10 10 10 9 8 9 8 8 9 10 11 12 13 14 15 18 19 21 22 23 22 24 25 24 25 25 26 26 26 26 26 27 29 30 31 31 31 32
14 13 12 12 12 12 12 11 10 9 8 8 8 8 9 10 11 11 13 14 15 17 19 20 21 22 22 23 25 26 26 27 28 28 28 28 29 31 32 32 32 33 34
14 14 13 13 13 13 12 11 10 10 10 10 9 9 9 10 10 11 12 13 14 16 18 19 20 21 22 22 24 25 26 27 28 29 29 30 31 32 33 33 34 35 35
15 15 15 14 14 14 13 12 11 11 11 12 11 11 12 12 12 12 13 14 15 16 18 19 20 21 22 23 25 26 26 28 29 30 31 31 32 33 34 34 35 36 37
16 16 15 15 14 13 13 13 13 13 12 13 13 14 14 14 14 14 15 15 17 18 19 20 21 22 24 26 27 27 28 30 31 32 32 33 33 34 34 35 36 37 39
17 16 16 16 16 15 14 14 14 15 15 15 15 15 15 15 16 16 16 17 17 18 19 21 23 24 25 26 27 28 29 29 29 30 31 32 33 34 35 36 37 39 40
19 19 18 17 17 17 16 16 16 16 17 17 17 17 17 17 17 17 18 18 18 19 20 21 22 23 24 25 26 26 27 28 29 30 31 32 33 34 36 38 39 40 42
19 18 18 17 17 17 17 17 18 18 17 18 18 18 18 18 18 18 19 19 19 20 21 21 21 23 24 24 25 26 27 27 29 30 32 33 35 36 37 39 40 41 42
19 19 18 17 17 17 17 17 18 17 17 18 19 18 18 18 19 20 21 21 22 22 22 22 23 23 24 26 27 28 29 30 31 32 34 35 36 37 38 39 40 41 43
18 18 18 18 18 18 18 17 17 18 18 18 18 19 19 19 20 21 21 21 22 22 23 24 24 25 26 27 28 30 31 32 33 33 34 35 36 37 39 40 42 44 45
Wind_Direction
289 291 289 289 282 279 280 276 267 261 255 246 236 235 234 229 227 228 225 222 221 218 218 220 223 228 231 231 232 233 235 236 236 240 238 239 243 245 253 255 251 250 252
286 286 285 286 283 283 280 278 271 264 259 245 234 232 231 230 229 228 228 227 225 221 219 223 226 229 232 234 237 237 238 237 238 239 239 241 246 248 246 245 247 247 248
286 285 282 284 281 277 279 275 269 262 254 244 238 233 230 227 226 227 230 230 228 225 223 225 227 232 234 236 237 238 233 233 236 237 239 242 247 249 250 249 249 246 244
283 282 278 281 282 273 270 268 263 258 252 246 242 237 232 229 227 227 227 227 228 225 225 226 228 234 237 237 236 236 233 235 238 239 241 244 246 249 252 254 252 249 246
280 278 279 281 281 271 265 263 261 256 254 250 246 236 234 233 228 227 227 227 230 229 226 226 228 234 237 237 237 237 236 237 238 240 243 245 249 248 252 252 251 251 251
279 280 278 279 279 271 266 264 260 255 253 250 247 238 234 230 229 229 229 229 231 231 228 227 230 234 236 237 236 236 236 237 238 240 244 247 250 249 251 252 250 250 253
281 283 283 281 277 273 270 264 259 255 253 247 244 240 236 230 230 230 230 232 234 233 231 230 232 233 234 235 235 236 235 236 239 240 244 247 246 248 250 253 250 249 250
278 280 281 279 275 269 268 268 262 256 247 243 241 238 235 232 232 232 233 234 235 233 231 229 230 232 234 236 236 236 236 237 238 240 243 243 245 248 249 252 250 248 251
273 276 277 282 277 271 267 267 264 258 244 243 243 238 237 235 230 233 235 235 234 233 233 230 231 233 234 236 238 237 237 238 239 240 242 245 248 248 249 251 250 250 252
272 277 282 286 274 267 267 270 269 261 246 243 243 240 237 234 233 232 235 235 233 234 233 232 232 233 235 236 238 239 238 240 240 240 243 247 249 250 251 252 252 253 255
271 275 283 291 280 273 271 275 273 265 255 245 242 239 235 237 234 232 232 232 231 231 231 232 233 235 236 236 238 239 241 241 242 244 247 250 251 251 252 253 253 256 259
266 272 278 282 286 282 279 278 280 272 256 246 243 241 239 238 236 233 230 231 230 230 229 230 233 235 237 237 238 240 241 244 247 248 250 250 250 250 251 252 254 259 262
267 267 276 279 288 290 283 281 275 272 257 248 245 240 238 236 233 231 230 228 228 228 228 230 235 235 236 237 239 241 243 246 250 251 251 250 250 250 253 256 259 263 265
267 269 272 273 280 285 285 286 272 262 251 254 248 239 237 233 229 226 227 228 229 229 230 232 236 236 236 238 240 241 244 247 252 253 253 252 251 253 256 259 262 264 266
264 271 269 268 273 277 283 289 270 259 253 254 250 243 238 235 229 229 229 230 230 230 230 234 236 237 238 240 242 243 246 250 254 255 255 256 257 257 260 263 265 266 267
263 267 269 273 277 275 277 282 274 257 253 257 254 250 248 242 235 232 232 233 232 232 233 235 240 242 242 245 246 248 251 254 256 257 258 260 261 261 264 266 268 270 271
263 263 267 273 277 275 275 271 269 261 256 257 257 251 247 241 238 238 241 241 237 238 239 239 242 244 245 245 248 250 251 255 257 260 261 264 265 266 268 270 271 273 273
263 265 266 268 270 270 270 270 262 257 253 256 261 256 250 247 245 248 249 246 242 240 240 243 243 246 248 250 250 253 254 257 259 263 265 266 268 270 270 271 273 273 274
262 263 267 269 266 266 266 263 258 255 252 255 259 258 255 253 248 249 251 250 249 247 246 248 248 250 251 253 255 258 259 260 262 265 267 268 270 271 272 273 274 275 277
263 262 265 266 267 264 262 257 255 256 256 257 257 259 256 256 254 253 255 257 254 254 254 253 253 254 256 257 259 261 263 264 265 266 267 269 271 272 274 275 276 277 278
262 262 265 265 265 265 261 256 254 256 258 259 258 258 256 257 256 257 260 263 262 261 261 260 260 261 262 263 263 264 266 267 268 268 269 270 272 274 276 276 278 279 279
260 260 262 261 259 261 260 260 260 258 258 259 258 256 256 256 258 261 265 267 266 266 267 264 263 264 266 266 266 268 269 271 272 272 272 273 273 273 275 277 278 279 280
257 256 256 258 259 258 258 261 259 260 258 257 255 255 256 257 260 264 267 268 268 269 269 267 266 267 270 269 268 270 271 270 273 275 276 276 277 277 278 279 280 281 282
257 255 255 257 258 258 258 258 260 261 259 256 255 255 258 260 262 264 266 267 267 268 269 270 271 271 272 272 272 274 275 276 277 278 278 278 278 279 280 281 282 283 284
253 253 254 254 255 256 257 257 259 259 259 258 257 257 260 262 265 268 266 267 269 270 270 271 273 274 274 274 274 275 275 276 279 280 280 281 281 282 282 283 284 285 286
250 251 253 255 254 253 252 253 256 258 259 260 260 260 260 262 266 268 268 269 272 273 272 272 274 274 275 276 278 280 280 280 281 283 283 283 283 284 284 285 286 287 288